Weather History for Piney Island, NC

Change the Weather History Date:

Sunday, December 9, 2012

  Actual Average (KMRH) Record (KMRH)
Temperature  
Mean Temperature 63 °F -  
Max Temperature 73 °F 62 °F 73 °F (1953)
Min Temperature 53 °F 40 °F 21 °F (2006)
Degree Days  
Heating Degree Days 2    
Growing Degree Days 13 (Base 50)    
Moisture  
Dew Point 56 °F    
Average Humidity 87    
Maximum Humidity 100    
Minimum Humidity 53    
Precipitation  
Precipitation 0.00 in - - ()
Sea Level Pressure  
Sea Level Pressure 30.12 in    
Wind  
Wind Speed 3 mph (SSE)    
Max Wind Speed 10 mph    
Max Gust Speed -    
Visibility 6 miles    
Events Fog    
Averages and records for this station are not official NWS values.
T = Trace of Precipitation, MM = Missing Value Source: NWS Daily Summary

Daily Weather History Graph

Daily Weather History Graph

Search for Another Location

Airport:

Trip Planner

Search our weather history database for the weather conditions in past years. The results will help you decide how hot, cold, wet, or windy it might be!

Date:

Astronomy

Dec. 09, 2012 Rise Set
Actual Time 7:02 AM EST 4:54 PM EST
Civil Twilight 6:34 AM EST 5:22 PM EST
Nautical Twilight 6:02 AM EST 5:53 PM EST
Astronomical Twilight 5:32 AM EST 6:24 PM EST
Moon 2:40 AM EST (12/9) 1:53 PM EST (12/9)
Length of Visible Light 10h 47m
Length of Day
9h 51m
Waning Crescent, 19% of the Moon is Illuminated
Dec 9
Waning Crescent
Dec 13
New
Dec 20
First Quarter
Dec 28
Full
Jan 4
Last Quarter

Hourly Weather History & Observations

Time (EST) Temp. Dew Point Humidity Pressure Visibility Wind Dir Wind Speed Gust Speed Precip Events Conditions
12:56 AM 54.0 °F 53.1 °F 97% 30.10 in 0.5 mi SW 3.5 mph - N/A Fog Fog
1:26 AM 53.6 °F 53.6 °F 100% 30.09 in 0.2 mi West 3.5 mph - N/A Fog Fog
1:56 AM 54.0 °F 53.1 °F 97% 30.11 in 0.2 mi West 3.5 mph - N/A Fog Fog
2:21 AM 53.6 °F 53.6 °F 100% 30.10 in 0.5 mi WSW 3.5 mph - N/A Fog Fog
2:29 AM 53.6 °F 53.6 °F 100% 30.10 in 0.8 mi SW 3.5 mph - N/A   Mist
2:46 AM 53.6 °F 53.6 °F 100% 30.10 in 0.5 mi SSW 4.6 mph - N/A Fog Fog
2:56 AM 54.0 °F 52.0 °F 93% 30.12 in 0.5 mi SSW 3.5 mph - N/A Fog Fog
3:18 AM 53.6 °F 53.6 °F 100% 30.10 in 0.8 mi SSW 3.5 mph - N/A   Mist
3:36 AM 53.6 °F 53.6 °F 100% 30.10 in 1.0 mi Calm Calm - N/A   Mist
3:45 AM 53.6 °F 53.6 °F 100% 30.10 in 1.0 mi Calm Calm - N/A   Clear
3:56 AM 54.0 °F 53.1 °F 97% 30.12 in 0.8 mi Calm Calm - N/A   Mist
3:59 AM 53.6 °F 53.6 °F 100% 30.10 in 0.8 mi Calm Calm - N/A   Clear
4:30 AM 53.6 °F 53.6 °F 100% 30.11 in 1.2 mi Calm Calm - N/A   Scattered Clouds
4:43 AM 53.6 °F 53.6 °F 100% 30.11 in 3.0 mi South 3.5 mph - N/A   Mostly Cloudy
4:56 AM 53.1 °F 52.0 °F 96% 30.13 in 9.0 mi Calm Calm - N/A   Overcast
5:56 AM 55.0 °F 54.0 °F 96% 30.14 in 10.0 mi Calm Calm - N/A   Overcast
6:56 AM 55.9 °F 54.0 °F 93% 30.15 in 10.0 mi SE 4.6 mph - N/A   Clear
7:56 AM 57.0 °F 55.0 °F 93% 30.17 in 8.0 mi South 3.5 mph - N/A   Clear
8:56 AM 62.1 °F 57.9 °F 86% 30.19 in 10.0 mi Calm Calm - N/A   Clear
9:56 AM 66.9 °F 57.9 °F 73% 30.19 in 10.0 mi Calm Calm - N/A   Partly Cloudy
10:56 AM 71.1 °F 57.0 °F 61% 30.18 in 10.0 mi SW 4.6 mph - N/A   Scattered Clouds
11:56 AM 71.1 °F 57.0 °F 61% 30.16 in 10.0 mi ENE 5.8 mph - N/A   Clear
12:56 PM 71.1 °F 59.0 °F 66% 30.14 in 10.0 mi ESE 9.2 mph - N/A   Clear
1:56 PM 73.9 °F 55.9 °F 53% 30.12 in 10.0 mi Variable 5.8 mph - N/A   Clear
2:56 PM 72.0 °F 55.9 °F 57% 30.12 in 10.0 mi SE 10.4 mph - N/A   Clear
3:56 PM 70.0 °F 57.0 °F 63% 30.13 in 10.0 mi SE 8.1 mph - N/A   Scattered Clouds
4:56 PM 66.0 °F 57.9 °F 75% 30.12 in 10.0 mi East 4.6 mph - N/A   Mostly Cloudy
5:13 PM 64.4 °F 57.2 °F 77% 30.11 in 10.0 mi ESE 4.6 mph - N/A   Mostly Cloudy
5:22 PM 64.4 °F 57.2 °F 77% 30.11 in 10.0 mi ESE 3.5 mph - N/A   Mostly Cloudy
5:56 PM 63.0 °F 57.0 °F 81% 30.12 in 10.0 mi SE 5.8 mph - N/A   Clear
6:56 PM 61.0 °F 55.9 °F 83% 30.12 in 10.0 mi ESE 6.9 mph - N/A   Clear
8:56 PM 64.0 °F 62.1 °F 93% 30.10 in 10.0 mi SSE 5.8 mph - N/A   Clear
9:56 PM 64.9 °F 61.0 °F 87% 30.09 in 10.0 mi SSE 5.8 mph - N/A   Clear
10:56 PM 64.9 °F 62.1 °F 90% 30.07 in 10.0 mi SSE 4.6 mph - N/A   Overcast
11:56 PM 66.0 °F 62.1 °F 87% 30.05 in 10.0 mi SSE 4.6 mph - N/A   Overcast